Kezdőlap
METAR-TAF:

METAR-TAF

Repülőterek :

Agri-Science Center

Chillicothe, Missouri, Amerikai Egyesült Államok

földrajzi szélesség: 39-49N, földrajzi hosszúság: 093-35W, magasság: 234 m

Jelenlegi meteorológiai megfigyelések

A jelentés 35 perccel ezelõtt készült, 09:52 UTC
Különbözõ irányokból fújó szél 3 kt
Hőmérséklet 7°C
Páratartalom 76%
Légköri nyomás 1015 hPa

METAR: KCDJ 230952Z AUTO VRB03KT 07/03 A2997 RMK AO1 SLP152 T00670033

Idő: 05:27 (10:27 UTC)


TAF: hiányzik

Meteorológiai megfigyelések és előrejelzések több, mint 4000 repülőtéren (METAR és TAF jelentéseket).

A térképen piros és sárga pontok jelzik az elérhető meteorológiai állomásokat.

Mozgassa az egeret a pont fölött, hogy megjelenjen az állomás neve.

Azután kattintson az időjárási megfigyelések és előrejelzések megtekintéséhez.

A térkép megváltoztatása: kattintson a fekete keresztel jelölt zöld gombra ráközelítéshez, a vonallal jelölt zöld gombra távolításhoz, vagy a zöld nyilakra a szomszédos térképek eléréséhez.


METAR-TAF: